Location: Kikino
(54.4440°N, 112.0940°W)
Time: 18:05:43
(UTC+00:00)

A-11 Canister half - Pass Details

Date: 19 May 2024
Orbit: 1525 x 1683 km, 47.3° (Epoch: 12 June)

Event Time Altitude Azimuth Distance (km) Brightness Sun altitude
Rises 10:11:39 0° 276° (W) 4,779 11.3 -7.5°
Reaches altitude 10° 10:14:50 10° 271° (W) 3,815 10.7 -7.2°
Maximum altitude 10:23:57 47° 202° (SSW) 2,066 9.3 -6.4°
Drops below altitude 10° 10:33:20 10° 133° (SE) 3,917 11.2 -5.4°
Sets 10:36:39 0° 128° (SE) 4,916 11.7 -5.1°
